Time,TemperatureF,DewpointF,PressureIn,WindDirection,WindDirectionDegrees,WindSpeedMPH,WindSpeedGustMPH,Humidity,HourlyPrecipIn,Conditions,Clouds,dailyrainin,SoftwareType,DateUTC
2013-01-16 00:00:00,49.8,35.6,28.72,NNW,333,6.0,9.0,58,0.00,CLR,,0.00,WeatherDisplay:10.37,2013-01-16 06:00:00,
2013-01-16 00:15:00,49.8,35.6,28.72,NW,310,7.0,10.0,58,0.00,CLR,,0.00,WeatherDisplay:10.37,2013-01-16 06:15:00,
2013-01-16 00:30:00,49.6,35.0,28.72,NW,310,8.0,12.0,57,0.00,CLR,,0.00,WeatherDisplay:10.37,2013-01-16 06:30:00,
2013-01-16 00:45:00,49.8,35.6,28.72,NW,315,6.0,12.0,58,0.00,CLR,,0.00,WeatherDisplay:10.37,2013-01-16 06:45:00,
2013-01-16 01:00:00,48.7,35.5,28.72,NW,315,7.0,9.0,60,0.00,CLR,,0.00,WeatherDisplay:10.37,2013-01-16 07:00:00,
2013-01-16 01:15:00,49.8,36.5,28.74,NNW,335,6.0,10.0,60,0.00,CLR,,0.00,WeatherDisplay:10.37,2013-01-16 07:15:00,
2013-01-16 01:30:00,49.6,35.5,28.74,NW,315,6.0,9.0,58,0.00,CLR,,0.00,WeatherDisplay:10.37,2013-01-16 07:30:00,
2013-01-16 01:45:00,49.3,35.1,28.75,NW,315,8.0,10.0,58,0.00,CLR,,0.00,WeatherDisplay:10.37,2013-01-16 07:45:00,
2013-01-16 02:00:00,49.3,35.5,28.76,NW,311,6.0,10.0,59,0.00,CLR,,0.00,WeatherDisplay:10.37,2013-01-16 08:00:00,
2013-01-16 02:15:00,48.9,36.1,28.76,NNW,341,5.0,11.0,61,0.00,CLR,,0.00,WeatherDisplay:10.37,2013-01-16 08:15:00,
2013-01-16 02:30:00,48.2,35.4,28.78,NW,326,7.0,11.0,61,0.00,CLR,,0.00,WeatherDisplay:10.37,2013-01-16 08:30:00,
2013-01-16 02:45:00,47.8,35.4,28.79,NW,306,5.0,11.0,62,0.00,CLR,,0.00,WeatherDisplay:10.37,2013-01-16 08:45:00,
2013-01-16 03:00:00,45.9,34.8,28.80,NW,315,8.0,10.0,65,0.00,CLR,,0.00,WeatherDisplay:10.37,2013-01-16 09:00:00,
2013-01-16 03:15:00,44.1,34.5,28.82,NNW,338,5.0,11.0,69,0.00,CLR,,0.00,WeatherDisplay:10.37,2013-01-16 09:15:00,
2013-01-16 03:30:00,44.2,34.3,28.84,NNW,335,5.0,10.0,68,0.00,CLR,,0.00,WeatherDisplay:10.37,2013-01-16 09:30:00,
2013-01-16 03:45:00,43.3,33.8,28.84,NW,320,5.0,9.0,69,0.00,CLR,,0.00,WeatherDisplay:10.37,2013-01-16 09:45:00,
2013-01-16 04:00:00,42.4,33.7,28.84,North,357,5.0,11.0,71,0.00,CLR,,0.00,WeatherDisplay:10.37,2013-01-16 10:00:00,
2013-01-16 04:15:00,40.8,33.5,28.85,North,2,3.0,8.0,75,0.00,CLR,,0.00,WeatherDisplay:10.37,2013-01-16 10:15:00,
2013-01-16 04:30:00,39.7,33.4,28.87,North,349,3.0,7.0,78,0.00,CLR,,0.00,WeatherDisplay:10.37,2013-01-16 10:30:00,
2013-01-16 04:45:00,40.3,33.6,28.88,NW,322,3.0,5.0,77,0.00,CLR,,0.00,WeatherDisplay:10.37,2013-01-16 10:45:00,
2013-01-16 05:00:00,40.1,33.8,28.90,NNW,338,3.0,7.0,78,0.00,CLR,,0.00,WeatherDisplay:10.37,2013-01-16 11:00:00,
2013-01-16 05:15:00,39.4,33.7,28.91,North,0,3.0,6.0,80,0.00,CLR,,0.00,WeatherDisplay:10.37,2013-01-16 11:15:00,
2013-01-16 05:30:00,38.8,33.5,28.91,NNW,346,3.0,5.0,81,0.00,CLR,,0.00,WeatherDisplay:10.37,2013-01-16 11:30:00,
2013-01-16 05:45:00,37.6,32.9,28.92,North,349,2.0,5.0,83,0.00,CLR,,0.00,WeatherDisplay:10.37,2013-01-16 11:45:00,
2013-01-16 06:00:00,36.1,32.1,28.94,NW,315,1.0,4.0,85,0.00,CLR,,0.00,WeatherDisplay:10.37,2013-01-16 12:00:00,
2013-01-16 06:15:00,34.9,31.4,28.95,NW,315,3.0,5.0,87,0.00,CLR,,0.00,WeatherDisplay:10.37,2013-01-16 12:15:00,
2013-01-16 06:30:00,34.2,31.3,28.96,NNE,23,10.0,12.0,89,0.00,CLR,,0.00,WeatherDisplay:10.37,2013-01-16 12:30:00,
2013-01-16 06:45:00,32.7,30.1,28.97,NE,45,12.0,15.0,90,0.00,CLR,,0.00,WeatherDisplay:10.37,2013-01-16 12:45:00,
2013-01-16 07:00:00,32.0,29.4,28.98,NE,36,8.0,15.0,90,0.00,CLR,,0.00,WeatherDisplay:10.37,2013-01-16 13:00:00,
2013-01-16 07:15:00,31.3,29.0,29.00,NNE,20,6.0,11.0,91,0.00,CLR,,0.00,WeatherDisplay:10.37,2013-01-16 13:15:00,
2013-01-16 07:30:00,30.7,27.9,29.01,NNE,24,10.0,15.0,89,0.00,CLR,,0.00,WeatherDisplay:10.37,2013-01-16 13:30:00,
2013-01-16 07:45:00,30.6,28.0,29.02,North,0,3.0,15.0,90,0.00,CLR,,0.00,WeatherDisplay:10.37,2013-01-16 13:45:00,
2013-01-16 08:00:00,30.7,28.2,29.03,NNE,28,3.0,10.0,90,0.00,CLR,,0.00,WeatherDisplay:10.37,2013-01-16 14:00:00,
2013-01-16 08:15:00,29.7,26.8,29.04,NNE,29,2.0,7.0,89,0.00,CLR,,0.00,WeatherDisplay:10.37,2013-01-16 14:15:00,
2013-01-16 08:30:00,28.4,25.8,29.05,NNE,25,5.0,9.0,90,0.00,CLR,,0.00,WeatherDisplay:10.37,2013-01-16 14:30:00,
2013-01-16 08:45:00,27.7,24.6,29.06,NNE,31,8.0,10.0,88,0.00,CLR,,0.00,WeatherDisplay:10.37,2013-01-16 14:45:00,
2013-01-16 09:00:00,27.0,23.3,29.07,NE,45,6.0,10.0,86,0.00,CLR,,0.00,WeatherDisplay:10.37,2013-01-16 15:00:00,
2013-01-16 09:15:00,25.9,22.3,29.07,NNE,16,7.0,11.0,86,0.00,CLR,,0.00,WeatherDisplay:10.37,2013-01-16 15:15:00,
2013-01-16 09:30:00,25.0,19.7,29.08,NE,45,8.0,11.0,80,0.00,CLR,,0.00,WeatherDisplay:10.37,2013-01-16 15:30:00,
2013-01-16 09:45:00,24.3,19.3,29.08,NE,45,6.0,10.0,81,0.00,CLR,,0.00,WeatherDisplay:10.37,2013-01-16 15:45:00,
2013-01-16 10:00:00,23.9,19.2,29.09,NE,45,8.0,11.0,82,0.00,CLR,,0.00,WeatherDisplay:10.37,2013-01-16 16:00:00,
2013-01-16 10:15:00,23.2,18.2,29.09,NE,45,6.0,11.0,81,0.00,CLR,,0.00,WeatherDisplay:10.37,2013-01-16 16:15:00,
2013-01-16 10:30:00,22.8,17.9,29.10,NE,45,5.0,8.0,81,0.00,CLR,,0.00,WeatherDisplay:10.37,2013-01-16 16:30:00,
2013-01-16 10:45:00,22.1,17.4,29.10,NE,47,2.0,6.0,82,0.00,CLR,,0.00,WeatherDisplay:10.37,2013-01-16 16:45:00,
2013-01-16 11:00:00,21.7,17.1,29.10,East,90,3.0,4.0,82,0.00,CLR,,0.00,WeatherDisplay:10.37,2013-01-16 17:00:00,
2013-01-16 11:15:00,20.7,15.2,29.10,East,88,1.0,4.0,79,0.00,CLR,,0.00,WeatherDisplay:10.37,2013-01-16 17:15:00,
2013-01-16 11:30:00,20.3,15.1,29.11,ENE,75,1.0,3.0,80,0.00,CLR,,0.00,WeatherDisplay:10.37,2013-01-16 17:30:00,
2013-01-16 11:45:00,19.8,14.9,29.12,NNE,29,1.0,4.0,81,0.00,CLR,,0.00,WeatherDisplay:10.37,2013-01-16 17:45:00,
2013-01-16 12:00:00,19.6,14.4,29.12,North,0,1.0,3.0,80,0.00,CLR,,0.00,WeatherDisplay:10.37,2013-01-16 18:00:00,
2013-01-16 12:15:00,19.9,15.9,29.12,North,0,5.0,5.0,84,0.00,CLR,,0.00,WeatherDisplay:10.37,2013-01-16 18:15:00,
2013-01-16 12:30:00,20.7,15.5,29.12,NE,45,2.0,6.0,80,0.00,CLR,,0.00,WeatherDisplay:10.37,2013-01-16 18:30:00,
2013-01-16 12:45:00,20.3,15.4,29.11,NE,48,1.0,4.0,81,0.00,CLR,,0.00,WeatherDisplay:10.37,2013-01-16 18:45:00,
2013-01-16 13:00:00,19.9,15.0,29.14,NE,48,1.0,4.0,81,0.00,CLR,,0.00,WeatherDisplay:10.37,2013-01-16 19:00:00,
2013-01-16 13:15:00,19.9,15.3,29.14,NNE,24,1.0,4.0,82,0.00,CLR,,0.00,WeatherDisplay:10.37,2013-01-16 19:15:00,
2013-01-16 13:30:00,19.2,14.3,29.15,NE,43,1.0,3.0,81,0.00,CLR,,0.00,WeatherDisplay:10.37,2013-01-16 19:30:00,
2013-01-16 13:45:00,19.4,14.8,29.15,North,8,2.0,3.0,82,0.00,CLR,,0.00,WeatherDisplay:10.37,2013-01-16 19:45:00,
2013-01-16 14:00:00,20.3,15.4,29.16,NE,45,0.0,3.0,81,0.00,CLR,,0.00,WeatherDisplay:10.37,2013-01-16 20:00:00,
2013-01-16 14:15:00,20.3,15.7,29.16,ENE,65,3.0,4.0,82,0.00,CLR,,0.00,WeatherDisplay:10.37,2013-01-16 20:15:00,
2013-01-16 14:30:00,20.1,15.8,29.16,NE,45,1.0,4.0,83,0.00,CLR,,0.00,WeatherDisplay:10.37,2013-01-16 20:30:00,
2013-01-16 14:45:00,20.3,16.0,29.16,NE,45,2.0,4.0,83,0.00,CLR,,0.00,WeatherDisplay:10.37,2013-01-16 20:45:00,
2013-01-16 15:00:00,20.3,14.5,29.16,NE,45,3.0,4.0,78,0.00,CLR,,0.00,WeatherDisplay:10.37,2013-01-16 21:00:00,
2013-01-16 15:15:00,20.5,14.4,29.17,NE,45,5.0,6.0,77,0.00,CLR,,0.00,WeatherDisplay:10.37,2013-01-16 21:15:00,
2013-01-16 15:30:00,20.7,14.3,29.17,NE,45,2.0,6.0,76,0.00,CLR,,0.00,WeatherDisplay:10.37,2013-01-16 21:30:00,
2013-01-16 15:45:00,20.8,14.5,29.17,SE,131,1.0,3.0,76,0.00,CLR,,0.00,WeatherDisplay:10.37,2013-01-16 21:45:00,
2013-01-16 16:00:00,20.8,14.2,29.18,NE,45,6.0,6.0,75,0.00,CLR,,0.00,WeatherDisplay:10.37,2013-01-16 22:00:00,
2013-01-16 16:15:00,20.7,14.0,29.17,NE,45,3.0,7.0,75,0.00,CLR,,0.00,WeatherDisplay:10.37,2013-01-16 22:15:00,
2013-01-16 16:30:00,20.5,14.7,29.17,NE,56,3.0,5.0,78,0.00,CLR,,0.00,WeatherDisplay:10.37,2013-01-16 22:30:00,
2013-01-16 16:45:00,20.7,14.9,29.17,East,85,2.0,4.0,78,0.00,CLR,,0.00,WeatherDisplay:10.37,2013-01-16 22:45:00,
2013-01-16 17:00:00,20.8,14.2,29.18,NE,45,5.0,5.0,75,0.00,CLR,,0.00,WeatherDisplay:10.37,2013-01-16 23:00:00,
2013-01-16 17:15:00,20.8,14.8,29.19,NE,45,6.0,7.0,77,0.00,CLR,,0.00,WeatherDisplay:10.37,2013-01-16 23:15:00,
2013-01-16 17:30:00,21.0,14.9,29.18,ENE,70,3.0,7.0,77,0.00,CLR,,0.00,WeatherDisplay:10.37,2013-01-16 23:30:00,
2013-01-16 17:45:00,21.2,15.1,29.19,ESE,104,1.0,6.0,77,0.00,CLR,,0.00,WeatherDisplay:10.37,2013-01-16 23:45:00,
2013-01-16 18:00:00,21.2,15.1,29.19,ENE,64,1.0,4.0,77,0.00,CLR,,0.00,WeatherDisplay:10.37,2013-01-17 00:00:00,
2013-01-16 18:15:00,21.4,15.6,29.20,SE,133,2.0,3.0,78,0.00,CLR,,0.00,WeatherDisplay:10.37,2013-01-17 00:15:00,
2013-01-16 18:30:00,21.7,16.2,29.20,SSW,202,5.0,7.0,79,0.00,CLR,,0.00,WeatherDisplay:10.37,2013-01-17 00:30:00,
2013-01-16 18:45:00,21.6,15.2,29.20,South,180,2.0,7.0,76,0.00,CLR,,0.00,WeatherDisplay:10.37,2013-01-17 00:45:00,
2013-01-16 19:00:00,21.7,15.0,29.22,South,180,1.0,4.0,75,0.00,CLR,,0.00,WeatherDisplay:10.37,2013-01-17 01:00:00,
2013-01-16 19:15:00,22.1,15.1,29.22,SSW,209,1.0,2.0,74,0.00,CLR,,0.00,WeatherDisplay:10.37,2013-01-17 01:15:00,
2013-01-16 19:30:00,22.5,15.7,29.23,South,180,2.0,4.0,75,0.00,CLR,,0.00,WeatherDisplay:10.37,2013-01-17 01:30:00,
2013-01-16 19:45:00,22.8,16.1,29.23,SSE,162,3.0,4.0,75,0.00,CLR,,0.00,WeatherDisplay:10.37,2013-01-17 01:45:00,
2013-01-16 20:00:00,23.2,17.0,29.23,South,191,5.0,6.0,77,0.00,CLR,,0.00,WeatherDisplay:10.37,2013-01-17 02:00:00,
2013-01-16 20:15:00,23.7,18.2,29.25,South,180,1.0,7.0,79,0.00,CLR,,0.00,WeatherDisplay:10.37,2013-01-17 02:15:00,
2013-01-16 20:30:00,23.9,18.9,29.24,South,180,3.0,6.0,81,0.00,CLR,,0.00,WeatherDisplay:10.37,2013-01-17 02:30:00,
2013-01-16 20:45:00,24.3,19.6,29.24,South,180,6.0,8.0,82,0.00,CLR,,0.00,WeatherDisplay:10.37,2013-01-17 02:45:00,
2013-01-16 21:00:00,24.8,20.9,29.25,South,184,3.0,8.0,85,0.00,CLR,,0.00,WeatherDisplay:10.37,2013-01-17 03:00:00,
2013-01-16 21:15:00,25.3,22.6,29.25,SSW,203,3.0,7.0,89,0.00,CLR,,0.00,WeatherDisplay:10.37,2013-01-17 03:15:00,
2013-01-16 21:30:00,26.8,23.7,29.25,South,180,3.0,5.0,88,0.00,CLR,,0.00,WeatherDisplay:10.37,2013-01-17 03:30:00,
2013-01-16 21:45:00,28.4,24.2,29.25,South,185,6.0,8.0,84,0.00,CLR,,0.00,WeatherDisplay:10.37,2013-01-17 03:45:00,
2013-01-16 22:00:00,28.2,23.7,29.24,SW,216,6.0,8.0,83,0.00,CLR,,0.00,WeatherDisplay:10.37,2013-01-17 04:00:00,
2013-01-16 22:15:00,28.6,25.5,29.24,SSW,199,3.0,8.0,88,0.00,CLR,,0.00,WeatherDisplay:10.37,2013-01-17 04:15:00,
2013-01-16 22:30:00,28.2,25.4,29.23,SSW,204,6.0,10.0,89,0.00,CLR,,0.00,WeatherDisplay:10.37,2013-01-17 04:30:00,
2013-01-16 22:45:00,27.7,25.7,29.23,SW,225,5.0,8.0,92,0.00,CLR,,0.00,WeatherDisplay:10.37,2013-01-17 04:45:00,
2013-01-16 23:00:00,28.2,26.5,29.22,SSW,207,6.0,10.0,93,0.00,CLR,,0.00,WeatherDisplay:10.37,2013-01-17 05:00:00,
2013-01-16 23:15:00,28.9,27.7,29.20,South,180,5.0,10.0,95,0.00,CLR,,0.00,WeatherDisplay:10.37,2013-01-17 05:15:00,
2013-01-16 23:30:00,29.3,28.0,29.21,SW,222,3.0,6.0,95,0.00,CLR,,0.00,WeatherDisplay:10.37,2013-01-17 05:30:00,
2013-01-16 23:45:00,29.7,28.4,29.21,SW,227,1.0,6.0,95,0.00,CLR,,0.00,WeatherDisplay:10.37,2013-01-17 05:45:00,